Temp
74 72 71 71 70 70 70 70 71 70 69 70 69 70 70 67 64 62 61 63 65 66 72 70 69 72 72 72 72 72 72 74 76 73 73 72 71 73 73 72 72 73 73 72 72 73 73 74 74 75 75 76 76 76 75 75 74 74 74 74 73 73 73 72 71 70 71 71 71 71 71 72 73 72
73 73 72 71 70 71 70 70 71 70 70 69 69 68 69 69 69 64 64 64 64 64 65 71 70 68 71 72 72 72 72 75 77 74 73 73 72 73 72 72 72 72 72 72 71 72 72 73 73 74 75 75 75 75 75 75 74 74 73 73 73 73 73 71 71 71 71 70 70 71 71 71 71 70
73 72 72 71 71 71 70 70 70 70 70 69 68 68 68 68 70 68 65 64 65 68 70 70 73 71 69 73 73 73 72 74 76 74 73 73 74 74 73 72 71 71 71 71 71 71 71 71 71 72 72 73 73 73 73 74 74 74 73 73 73 73 73 71 70 71 71 70 70 70 70 70 70 69
74 72 72 72 71 71 70 70 70 69 70 69 68 69 69 68 68 68 66 66 71 66 69 69 70 72 71 69 71 71 72 74 76 74 74 74 76 74 73 73 72 71 71 71 71 70 69 69 70 71 72 72 72 73 73 73 73 73 72 72 72 71 71 70 70 70 70 70 70 70 70 70 69 69
74 73 73 73 72 71 71 71 71 70 70 69 69 69 68 68 68 68 67 67 69 69 66 67 69 69 70 69 69 71 71 71 72 75 74 73 73 73 72 72 73 71 70 70 70 70 69 69 69 70 71 71 72 72 72 72 71 71 71 71 69 69 70 70 70 70 70 70 70 70 69 69 69 69
75 74 73 73 73 72 72 72 71 71 71 70 69 68 69 68 68 68 69 68 67 70 67 66 67 67 68 71 67 71 71 71 71 71 72 73 73 72 72 72 72 72 71 70 70 70 69 69 68 69 70 70 71 71 71 71 69 70 70 69 68 68 68 68 69 69 69 69 69 69 69 69 69 69
74 73 73 74 74 73 71 72 72 72 71 71 71 71 70 69 70 69 69 68 68 68 70 67 68 68 68 70 71 69 71 72 71 71 71 72 72 73 72 72 73 72 71 70 70 69 69 69 68 68 68 69 69 69 69 68 68 68 67 66 67 67 67 67 67 68 68 68 69 69 69 68 68 68
74 74 73 74 74 73 72 72 72 72 71 71 71 71 71 69 70 70 68 69 70 69 68 66 69 69 69 68 68 69 69 70 70 70 71 71 72 72 72 72 72 73 71 70 69 69 69 68 68 67 67 67 67 67 67 66 66 66 66 66 66 65 65 64 64 66 66 66 66 67 68 67 67 67
75 74 74 75 74 73 72 73 72 72 71 71 71 71 71 70 70 70 69 69 68 68 68 69 65 67 67 68 67 67 69 68 68 68 69 70 70 71 72 72 73 73 71 71 70 69 68 69 68 68 67 66 66 66 66 65 65 65 64 63 63 64 64 63 63 64 64 64 63 64 65 66 66 65
76 75 75 75 74 74 73 74 74 73 72 72 71 71 71 71 70 69 69 68 68 67 69 69 70 66 68 67 67 68 68 69 68 67 68 67 68 69 69 70 73 74 74 72 72 70 68 68 67 68 67 66 65 65 65 65 65 63 62 60 62 64 63 62 62 62 62 62 61 61 63 64 64 64
76 76 76 75 74 74 74 74 74 74 73 73 72 72 72 72 70 69 69 68 67 68 68 69 68 68 67 67 69 68 68 69 69 69 67 67 68 68 68 70 71 73 73 73 72 72 72 71 69 66 65 65 66 65 64 64 64 63 62 60 60 60 61 61 61 60 60 61 60 60 59 59 62 63
77 77 76 76 76 75 75 75 75 74 74 73 72 73 72 71 70 70 70 68 67 67 67 68 70 66 67 65 67 66 65 65 66 67 68 68 68 67 67 69 70 70 70 71 72 71 71 70 69 67 66 66 66 65 64 65 66 65 62 61 63 62 60 60 60 59 59 59 59 59 59 59 59 60
76 77 77 77 77 77 75 73 73 73 73 75 73 73 72 71 70 70 70 69 67 67 67 68 69 67 67 67 66 66 65 67 70 66 67 68 70 68 68 69 69 71 70 71 71 71 72 71 70 69 68 68 68 66 66 66 67 66 63 62 63 63 61 60 60 60 59 58 58 57 59 58 57 57
76 77 77 78 76 72 71 71 70 69 69 70 74 76 73 72 71 71 70 69 69 68 67 68 69 68 68 70 68 68 70 70 68 67 66 66 68 65 66 67 68 70 70 70 68 71 72 71 70 69 68 70 71 67 66 66 67 66 64 63 63 62 62 60 59 59 59 58 57 57 56 57 57 57
76 76 77 77 77 74 71 72 69 68 68 68 68 70 72 72 74 72 70 70 71 69 69 70 69 68 69 70 71 70 71 69 69 69 67 67 67 66 65 66 68 69 71 68 69 70 71 70 69 69 69 70 69 68 67 66 66 65 64 64 63 63 63 62 61 59 58 58 58 57 56 56 56 56
77 76 77 77 77 77 77 76 74 70 67 66 67 67 68 69 69 71 74 73 71 70 70 70 70 69 69 70 71 71 70 70 69 68 67 66 66 66 65 66 67 69 71 70 68 69 69 69 69 70 70 70 70 70 68 66 64 64 64 63 63 62 62 63 62 61 60 59 60 59 58 57 57 57
77 77 76 76 77 78 74 75 76 76 74 67 65 66 66 67 67 67 67 70 76 76 72 71 72 71 72 71 71 73 72 71 68 67 66 67 67 68 68 69 70 69 70 70 67 68 69 67 68 68 71 71 70 70 67 66 65 63 64 63 63 62 62 62 62 62 61 60 59 58 58 59 59 58
77 77 77 76 76 77 77 76 76 76 75 75 73 70 69 70 71 67 65 65 66 72 75 74 73 74 73 73 74 74 72 70 69 69 69 68 68 67 68 71 72 71 70 69 67 66 66 66 68 68 70 71 70 69 68 65 64 64 63 62 62 62 62 62 61 61 61 60 60 58 57 57 57 57
78 78 77 77 77 77 77 77 76 76 76 75 75 74 74 73 73 74 74 72 72 72 73 75 76 77 76 76 76 75 72 73 73 74 73 72 71 71 71 70 70 68 68 70 68 67 67 65 66 68 69 70 69 69 66 65 64 64 63 62 62 61 61 61 61 61 60 60 59 59 58 56 56 55
79 78 78 77 77 78 77 74 68 71 76 76 75 74 75 75 75 75 72 70 72 75 76 76 77 78 79 74 78 78 76 73 73 74 74 72 69 68 68 68 70 70 68 70 70 68 67 65 67 68 69 68 67 67 67 65 64 64 63 62 62 61 60 60 61 60 60 60 60 60 58 56 55 55
79 79 79 78 78 78 77 73 67 65 68 75 75 75 75 75 76 76 76 69 66 66 66 66 68 68 68 68 66 66 67 73 72 72 70 69 70 68 67 68 69 69 68 68 72 70 69 65 66 66 66 66 67 67 67 67 64 63 63 62 61 60 58 59 60 60 60 60 60 60 59 56 54 56
79 79 76 78 79 78 78 70 65 65 67 73 75 75 75 74 74 76 77 78 74 65 64 65 65 66 66 66 66 66 65 63 67 73 70 73 72 69 69 68 70 71 69 69 71 68 70 66 65 66 60 61 63 66 66 67 66 64 62 60 60 59 59 58 59 60 60 60 60 59 58 56 55 55
78 79 77 74 73 76 75 67 64 63 66 74 75 75 75 74 74 76 77 77 77 76 73 72 71 70 69 70 71 72 66 66 70 72 74 75 72 70 71 70 70 67 70 69 72 68 68 66 65 66 61 62 63 63 66 67 66 65 64 63 61 59 58 57 57 57 59 59 59 59 57 56 55 55
77 78 79 76 64 63 64 63 62 61 60 72 76 76 75 74 74 78 78 78 77 77 76 77 76 75 75 75 74 74 74 72 71 71 73 74 73 72 68 69 68 65 66 65 70 67 69 69 68 66 70 66 63 61 63 64 65 65 64 62 61 60 60 60 58 57 57 57 58 58 57 55 55 56
77 77 78 79 70 62 60 59 59 58 58 61 74 76 76 77 77 74 77 78 74 77 77 76 76 77 77 76 76 76 75 75 74 73 72 74 73 70 68 67 66 66 66 66 69 68 67 68 68 66 65 68 65 59 60 64 64 65 64 64 63 61 61 60 60 60 58 57 56 56 56 55 54 56
77 78 78 78 73 64 60 59 57 56 57 57 65 73 65 66 65 72 77 78 77 77 76 76 75 76 76 76 76 75 75 76 76 76 76 74 75 76 74 70 67 65 66 66 66 70 69 68 70 67 65 64 63 65 60 59 62 63 64 64 65 63 62 61 61 60 59 59 58 55 56 55 55 55
78 79 79 78 71 62 58 55 55 55 55 56 62 59 59 60 61 64 70 72 73 74 74 74 74 75 75 74 74 73 71 74 76 77 77 77 77 76 76 75 72 69 69 67 68 71 71 70 71 68 66 64 63 62 64 63 59 61 61 62 63 64 63 63 61 61 60 59 60 58 55 55 54 55
79 79 79 69 60 57 54 53 52 53 54 60 55 54 55 57 59 64 66 67 69 70 70 71 72 73 75 73 71 70 69 72 75 76 77 77 77 77 76 75 74 72 70 68 69 70 72 71 70 70 67 63 63 62 61 64 65 61 61 61 62 62 62 63 63 63 62 60 60 60 58 57 56 55
70 56 51 52 54 54 56 55 54 54 53 52 52 53 54 58 63 64 66 67 67 67 68 69 71 72 72 72 72 69 70 71 73 73 74 75 76 76 74 73 71 70 70 71 70 70 70 70 69 69 66 65 65 66 65 64 62 58 59 58 56 61 61 61 62 62 61 59 59 60 59 60 57 57
55 56 56 55 57 59 60 64 66 67 67 61 58 55 56 61 63 65 65 66 66 66 67 68 69 70 72 72 70 68 70 69 69 71 72 72 72 71 70 69 68 70 70 70 70 71 70 71 70 68 66 66 66 66 66 65 61 58 59 58 59 60 60 60 61 62 62 59 59 59 60 61 60 58
65 66 66 65 60 60 60 60 59 60 62 65 66 65 66 65 65 66 66 66 67 67 67 67 68 69 70 70 69 67 67 67 68 70 69 69 69 70 69 68 67 67 69 71 72 72 72 71 70 69 66 66 65 65 66 64 60 55 57 59 62 59 60 60 61 61 61 60 58 58 58 58 59 61
68 68 65 63 66 67 66 65 65 65 65 65 64 64 64 65 65 66 64 64 65 66 66 67 67 67 67 67 67 68 67 67 68 69 68 68 68 68 68 67 67 68 69 69 70 71 72 72 71 71 70 68 65 65 64 61 60 57 56 58 59 61 61 61 60 61 61 59 56 56 56 57 58 58
65 65 64 63 63 63 62 62 62 62 62 63 63 63 63 64 63 63 63 63 63 64 64 63 64 64 64 64 65 66 66 66 67 68 67 68 67 68 68 67 67 67 67 67 68 69 70 70 71 70 68 68 68 66 60 58 60 59 57 57 56 56 59 60 62 61 59 58 58 57 55 55 57 58
61 61 60 60 60 60 60 60 59 59 59 60 60 61 59 60 60 60 60 60 61 62 61 61 61 61 61 61 62 63 64 65 66 66 64 66 67 66 66 66 67 68 67 68 68 68 68 68 67 67 67 67 66 65 63 62 59 58 58 57 56 56 57 60 60 61 60 62 60 57 56 55 55 56
60 59 59 59 59 59 59 58 58 58 58 58 58 59 59 59 59 59 59 59 59 60 60 60 60 60 60 60 60 61 62 63 64 65 66 66 66 66 66 66 66 67 67 67 67 68 67 66 65 63 61 60 59 59 62 62 61 59 58 57 57 57 58 59 59 59 60 59 60 59 56 56 55 55
60 61 61 60 59 58 58 57 57 58 58 58 58 58 58 58 59 59 59 59 60 60 60 59 59 59 59 59 59 60 60 60 61 61 62 63 64 65 65 65 66 66 67 66 66 67 67 65 63 62 59 58 57 57 57 63 63 59 56 55 56 55 57 58 61 60 59 58 58 58 56 55 56 56
59 58 58 57 55 55 55 55 57 59 59 59 59 60 60 59 60 60 60 60 60 59 59 59 59 59 58 58 58 58 58 58 59 60 61 62 63 63 63 63 64 65 65 67 67 66 66 63 62 61 60 58 56 56 58 60 59 61 60 55 55 56 55 57 58 57 58 57 56 58 57 56 56 56
57 56 55 55 54 55 55 57 57 58 59 59 60 60 61 60 60 59 59 58 58 58 58 59 59 59 59 59 58 58 59 59 59 59 60 61 61 62 62 63 64 65 65 65 66 65 65 63 61 61 60 59 57 57 58 57 56 56 59 59 55 55 58 56 56 54 55 57 57 56 56 56 57 58
56 57 57 55 56 56 56 55 56 57 57 58 59 59 58 57 57 57 57 57 57 57 58 58 58 58 58 59 58 58 58 58 59 59 60 61 62 62 63 63 62 63 63 63 64 64 63 61 61 61 61 61 60 61 62 56 54 56 56 56 57 55 56 58 58 58 56 55 56 55 55 55 56 58
56 56 55 55 55 55 56 56 56 56 55 55 55 55 55 55 55 56 56 56 56 57 57 57 57 56 58 58 58 58 58 58 58 59 60 61 61 61 62 62 62 62 61 62 62 63 62 62 61 62 62 64 64 61 58 56 55 55 55 54 56 57 57 57 58 57 56 57 56 55 54 55 56 52
55 56 56 56 55 56 57 56 55 55 55 54 54 55 55 54 54 55 55 56 56 56 56 56 56 56 57 57 58 57 57 57 58 59 59 60 60 60 60 59 61 62 61 61 62 62 63 63 65 61 61 56 55 56 55 52 50 51 52 53 53 55 56 59 58 59 57 56 56 55 54 55 54 51
56 55 55 56 56 56 55 54 53 54 54 54 53 53 54 55 54 54 55 56 55 56 55 55 56 56 56 56 57 57 56 56 56 56 57 57 59 60 60 60 61 61 61 60 59 58 57 58 59 57 57 57 56 54 52 52 50 51 52 52 53 54 55 56 59 61 61 59 57 54 51 50 51 52
56 56 56 56 55 55 54 54 53 53 54 53 53 53 53 54 53 54 54 54 54 55 55 55 55 55 55 56 56 56 56 56 56 56 56 56 56 57 58 57 57 57 57 55 55 56 56 57 56 56 55 54 54 53 51 51 52 52 51 52 53 54 54 54 54 56 58 60 61 61 59 56 52 50
55 55 55 55 55 54 53 52 52 53 52 52 53 53 53 52 53 53 53 53 54 54 54 54 55 55 55 55 55 55 55 55 55 56 55 55 55 55 55 55 55 55 55 55 54 55 55 55 55 55 54 53 54 53 52 52 52 52 52 53 53 53 53 54 56 55 56 57 56 57 58 59 59 57
55 55 55 55 55 54 54 53 53 53 52 52 52 52 53 52 53 52 52 53 53 54 54 54 54 54 55 55 55 54 55 54 54 55 55 55 55 54 55 55 55 55 54 55 54 54 55 55 55 55 54 53 53 53 53 53 52 52 52 53 52 53 53 54 54 55 55 56 57 55 55 55 55 55
MSLP
1019.34 1019.54 1019.58 1019.70 1019.66 1019.66 1019.66 1019.78 1019.86 1019.90 1020.02 1020.10 1020.18 1020.30 1020.82 1021.26 1022.14 1022.58 1022.62 1021.94 1021.66 1020.62 1020.42 1020.74 1019.78 1019.54 1019.66 1019.82 1019.78 1020.02 1020.06 1019.98 1020.10 1020.26 1020.30 1020.34 1020.38 1020.34 1020.42 1020.54 1020.62 1020.70 1020.74 1020.82 1020.90 1020.90 1020.94 1020.98 1021.02 1021.06 1021.10 1021.10 1021.14 1021.14 1021.18 1021.22 1021.22 1021.22 1021.22 1021.22 1021.22 1021.26 1021.30 1021.38 1021.46 1021.54 1021.58 1021.58 1021.58 1021.58 1021.54 1021.50 1021.46 1021.46
1019.18 1019.30 1019.46 1019.54 1019.62 1019.46 1019.62 1019.66 1019.66 1019.74 1019.82 1020.02 1020.22 1020.34 1020.38 1020.50 1021.26 1021.70 1022.34 1021.82 1020.94 1020.62 1020.18 1020.06 1019.86 1019.46 1019.54 1019.54 1019.74 1019.78 1019.82 1019.70 1019.86 1020.02 1020.10 1020.10 1020.06 1020.02 1020.14 1020.26 1020.38 1020.50 1020.54 1020.62 1020.70 1020.74 1020.78 1020.82 1020.86 1020.90 1020.90 1020.90 1020.90 1020.94 1020.98 1021.02 1021.06 1021.06 1021.10 1021.10 1021.10 1021.10 1021.14 1021.22 1021.30 1021.38 1021.42 1021.46 1021.50 1021.54 1021.54 1021.50 1021.46 1021.42
1019.06 1019.30 1019.42 1019.34 1019.46 1019.34 1019.50 1019.54 1019.58 1019.62 1019.70 1019.82 1020.02 1020.22 1020.34 1020.50 1020.42 1020.90 1021.38 1022.18 1020.38 1020.06 1020.14 1019.70 1019.30 1019.34 1019.30 1019.30 1019.42 1019.54 1019.50 1019.46 1019.54 1019.70 1019.78 1019.74 1019.66 1019.78 1019.94 1020.02 1020.14 1020.22 1020.30 1020.38 1020.46 1020.54 1020.58 1020.66 1020.66 1020.66 1020.66 1020.66 1020.66 1020.70 1020.74 1020.78 1020.86 1020.86 1020.86 1020.90 1020.94 1020.98 1021.02 1021.06 1021.10 1021.18 1021.26 1021.34 1021.42 1021.46 1021.46 1021.46 1021.42 1021.38
1018.86 1019.10 1019.30 1019.26 1019.26 1019.22 1019.34 1019.46 1019.50 1019.54 1019.54 1019.58 1019.86 1019.98 1020.14 1020.18 1020.26 1020.46 1020.98 1021.50 1020.66 1019.70 1019.58 1019.38 1019.18 1019.10 1019.18 1019.26 1019.50 1019.46 1019.34 1019.14 1019.22 1019.34 1019.38 1019.30 1019.42 1019.62 1019.66 1019.74 1019.82 1019.94 1020.02 1020.10 1020.14 1020.18 1020.26 1020.34 1020.38 1020.42 1020.38 1020.38 1020.38 1020.42 1020.46 1020.50 1020.54 1020.58 1020.62 1020.66 1020.74 1020.78 1020.86 1020.90 1020.94 1020.98 1021.06 1021.14 1021.22 1021.34 1021.38 1021.42 1021.38 1021.30
1018.74 1018.90 1019.06 1019.06 1019.02 1019.06 1019.34 1019.30 1019.34 1019.42 1019.42 1019.50 1019.58 1019.70 1019.86 1019.98 1020.10 1020.42 1020.82 1021.22 1020.70 1019.74 1019.34 1019.38 1019.18 1018.98 1019.10 1019.38 1019.14 1019.38 1019.26 1019.22 1019.10 1019.02 1019.02 1019.10 1019.30 1019.30 1019.34 1019.34 1019.38 1019.50 1019.62 1019.70 1019.74 1019.78 1019.86 1019.94 1020.02 1020.06 1020.06 1020.10 1020.10 1020.10 1020.14 1020.18 1020.26 1020.34 1020.38 1020.42 1020.50 1020.58 1020.66 1020.74 1020.74 1020.78 1020.86 1020.94 1021.02 1021.14 1021.26 1021.30 1021.30 1021.22
1018.58 1018.66 1018.90 1018.90 1018.86 1018.90 1019.14 1019.10 1019.22 1019.18 1019.30 1019.42 1019.50 1019.54 1019.66 1019.78 1019.90 1019.98 1020.42 1020.62 1020.82 1020.26 1019.50 1019.42 1019.18 1019.22 1018.98 1019.30 1018.82 1019.06 1019.14 1019.06 1018.94 1019.06 1018.90 1018.82 1018.90 1018.98 1018.98 1019.10 1019.02 1018.98 1019.10 1019.22 1019.30 1019.38 1019.42 1019.50 1019.58 1019.66 1019.70 1019.78 1019.78 1019.78 1019.82 1019.90 1019.94 1020.02 1020.10 1020.18 1020.26 1020.34 1020.42 1020.50 1020.54 1020.62 1020.66 1020.74 1020.82 1020.94 1021.06 1021.14 1021.18 1021.14
1018.38 1018.66 1018.74 1018.70 1018.66 1018.78 1019.06 1019.02 1018.94 1018.90 1019.06 1019.10 1019.34 1019.30 1019.34 1019.50 1019.50 1019.66 1019.82 1020.22 1020.46 1020.22 1019.66 1019.14 1019.26 1019.10 1019.02 1019.06 1018.78 1018.66 1018.58 1018.46 1018.58 1018.86 1018.78 1018.70 1018.66 1018.58 1018.62 1018.74 1018.62 1018.54 1018.62 1018.74 1018.82 1018.94 1018.98 1019.06 1019.18 1019.22 1019.34 1019.42 1019.46 1019.46 1019.50 1019.58 1019.66 1019.74 1019.82 1019.90 1019.98 1020.06 1020.14 1020.26 1020.34 1020.42 1020.46 1020.54 1020.66 1020.74 1020.86 1020.98 1021.06 1021.06
1018.26 1018.42 1018.62 1018.46 1018.42 1018.58 1018.86 1018.78 1018.82 1018.74 1018.78 1018.98 1019.06 1019.14 1019.06 1019.18 1019.22 1019.26 1019.54 1019.66 1019.82 1019.66 1019.94 1019.10 1019.06 1018.74 1018.94 1018.82 1018.62 1018.50 1018.46 1018.54 1018.58 1018.54 1018.42 1018.38 1018.50 1018.42 1018.38 1018.38 1018.34 1018.18 1018.22 1018.30 1018.42 1018.50 1018.58 1018.66 1018.74 1018.82 1018.90 1018.98 1019.06 1019.14 1019.18 1019.30 1019.38 1019.46 1019.54 1019.62 1019.70 1019.78 1019.90 1019.98 1020.06 1020.18 1020.30 1020.38 1020.46 1020.54 1020.66 1020.78 1020.90 1020.94
1017.90 1018.10 1018.26 1018.06 1018.18 1018.34 1018.66 1018.54 1018.62 1018.54 1018.70 1018.66 1018.86 1018.90 1018.86 1018.94 1018.90 1019.02 1019.18 1019.38 1019.54 1019.74 1019.70 1019.14 1018.74 1018.66 1018.66 1018.54 1018.50 1018.46 1018.70 1018.62 1018.58 1018.46 1018.46 1018.34 1018.26 1018.22 1018.06 1018.02 1017.86 1017.82 1017.86 1017.94 1018.02 1018.10 1018.14 1018.22 1018.30 1018.38 1018.42 1018.54 1018.66 1018.74 1018.86 1018.94 1019.06 1019.18 1019.26 1019.34 1019.46 1019.54 1019.62 1019.74 1019.86 1019.98 1020.10 1020.18 1020.30 1020.38 1020.46 1020.58 1020.74 1020.82
1017.42 1017.70 1017.78 1017.78 1017.94 1018.14 1018.34 1018.22 1018.06 1018.10 1018.30 1018.42 1018.58 1018.62 1018.58 1018.58 1018.66 1018.86 1018.94 1019.10 1019.34 1019.54 1019.38 1019.30 1019.06 1018.74 1018.86 1018.70 1018.46 1018.22 1018.34 1018.62 1018.70 1018.62 1018.38 1018.26 1018.14 1018.22 1018.26 1017.98 1017.70 1017.58 1017.62 1017.74 1017.70 1017.74 1017.82 1017.90 1017.94 1017.98 1018.02 1018.10 1018.22 1018.38 1018.50 1018.62 1018.74 1018.82 1018.94 1019.06 1019.18 1019.26 1019.34 1019.46 1019.62 1019.78 1019.90 1019.98 1020.10 1020.14 1020.26 1020.42 1020.58 1020.66
1017.02 1017.14 1017.26 1017.46 1017.58 1017.74 1017.66 1017.70 1017.74 1017.78 1017.98 1018.14 1018.18 1018.14 1018.18 1018.18 1018.46 1018.58 1018.70 1018.94 1019.18 1019.26 1019.26 1019.02 1018.90 1018.82 1018.46 1018.58 1018.54 1018.10 1018.06 1018.18 1018.22 1018.42 1018.58 1018.54 1017.98 1018.06 1018.02 1017.98 1017.58 1017.42 1017.42 1017.22 1017.18 1017.18 1017.22 1017.30 1017.50 1017.58 1017.66 1017.74 1017.86 1018.02 1018.18 1018.34 1018.42 1018.54 1018.62 1018.78 1018.90 1019.02 1019.10 1019.26 1019.42 1019.58 1019.70 1019.78 1019.90 1019.98 1020.06 1020.26 1020.42 1020.46
1016.66 1016.70 1016.78 1016.90 1017.02 1017.10 1017.06 1017.14 1017.18 1017.42 1017.74 1017.74 1017.94 1017.74 1017.94 1018.06 1018.30 1018.38 1018.42 1018.82 1018.98 1019.10 1019.10 1018.98 1018.66 1018.54 1018.46 1018.38 1018.14 1018.06 1018.18 1018.42 1018.30 1018.14 1018.38 1018.50 1018.06 1017.90 1017.66 1017.50 1017.54 1017.26 1017.34 1017.30 1017.06 1016.90 1017.02 1017.10 1017.18 1017.30 1017.42 1017.50 1017.62 1017.78 1017.98 1018.14 1018.22 1018.26 1018.38 1018.50 1018.62 1018.78 1018.90 1019.06 1019.18 1019.34 1019.46 1019.54 1019.70 1019.78 1019.90 1020.06 1020.22 1020.30
1016.30 1016.38 1016.38 1016.42 1016.42 1016.42 1016.46 1016.54 1016.66 1016.82 1016.94 1017.34 1017.66 1017.42 1017.54 1017.78 1017.98 1018.02 1018.22 1018.54 1018.74 1018.82 1018.86 1018.70 1018.38 1018.46 1018.46 1018.26 1018.38 1018.42 1018.46 1018.34 1017.78 1017.62 1017.86 1017.94 1017.46 1017.46 1017.54 1017.06 1016.90 1016.90 1017.10 1016.86 1016.86 1016.82 1016.70 1016.98 1017.06 1017.10 1017.30 1017.30 1017.42 1017.62 1017.78 1017.90 1017.98 1018.06 1018.14 1018.26 1018.38 1018.54 1018.70 1018.82 1018.94 1019.06 1019.18 1019.34 1019.46 1019.58 1019.70 1019.86 1020.02 1020.14
1016.02 1015.94 1015.98 1015.86 1015.90 1016.06 1016.14 1016.26 1016.38 1016.46 1016.50 1016.50 1016.58 1016.66 1017.06 1017.34 1017.62 1017.78 1018.06 1018.34 1018.42 1018.50 1018.66 1018.50 1018.34 1018.50 1018.30 1017.94 1017.94 1017.98 1017.50 1017.30 1017.34 1017.54 1017.62 1017.82 1017.30 1017.58 1017.50 1017.02 1016.62 1016.46 1016.78 1016.94 1017.02 1016.50 1016.34 1016.62 1016.74 1016.86 1017.10 1016.94 1017.10 1017.34 1017.62 1017.70 1017.70 1017.82 1017.90 1018.02 1018.14 1018.30 1018.46 1018.58 1018.70 1018.82 1018.94 1019.10 1019.26 1019.38 1019.50 1019.66 1019.78 1019.94
1015.70 1015.66 1015.58 1015.58 1015.58 1015.74 1015.90 1015.94 1015.94 1015.98 1016.06 1016.14 1016.22 1016.18 1016.22 1016.38 1016.78 1017.34 1017.78 1017.82 1017.82 1018.02 1018.02 1017.78 1017.98 1018.02 1017.82 1017.46 1017.26 1017.30 1017.06 1017.06 1017.14 1017.14 1017.30 1017.42 1017.50 1017.74 1017.90 1017.54 1016.18 1015.86 1016.22 1016.74 1016.78 1016.34 1015.94 1016.30 1016.74 1016.62 1016.70 1016.70 1016.86 1016.98 1017.10 1017.14 1017.26 1017.38 1017.50 1017.66 1017.86 1018.02 1018.18 1018.30 1018.46 1018.62 1018.74 1018.86 1018.98 1019.18 1019.34 1019.46 1019.58 1019.74
1015.26 1015.34 1015.42 1015.30 1015.22 1015.22 1015.26 1015.42 1015.62 1015.70 1015.74 1015.78 1015.82 1015.90 1015.98 1016.06 1016.06 1016.06 1016.50 1016.98 1017.34 1017.42 1017.50 1017.42 1017.30 1017.42 1017.30 1016.94 1016.86 1016.86 1016.82 1016.70 1016.82 1017.02 1017.18 1017.30 1017.42 1017.42 1017.42 1016.94 1016.74 1015.38 1015.42 1016.10 1016.42 1016.18 1015.70 1016.02 1016.34 1016.38 1016.22 1016.26 1016.30 1016.30 1016.34 1016.50 1016.70 1016.86 1017.02 1017.22 1017.42 1017.66 1017.82 1017.98 1018.18 1018.42 1018.54 1018.62 1018.70 1018.86 1019.06 1019.26 1019.38 1019.46
1014.74 1014.90 1015.06 1015.10 1014.94 1014.74 1014.82 1015.10 1015.14 1015.18 1015.26 1015.30 1015.46 1015.58 1015.70 1015.78 1015.78 1015.82 1015.78 1015.66 1015.78 1015.94 1016.58 1016.66 1016.46 1016.54 1016.46 1016.50 1016.14 1015.90 1015.86 1015.94 1016.74 1016.78 1017.02 1016.86 1016.70 1016.46 1016.46 1016.06 1015.82 1015.26 1015.02 1015.78 1016.46 1016.34 1015.58 1015.78 1016.02 1016.14 1015.66 1015.66 1015.62 1015.66 1015.78 1015.86 1016.02 1016.18 1016.42 1016.70 1016.94 1017.22 1017.42 1017.62 1017.90 1018.18 1018.38 1018.46 1018.50 1018.58 1018.78 1018.94 1019.06 1019.14
1014.26 1014.38 1014.62 1014.78 1014.66 1014.42 1014.54 1014.58 1014.70 1014.78 1014.82 1014.86 1015.06 1015.30 1015.42 1015.38 1015.10 1015.22 1015.34 1015.50 1015.50 1015.46 1015.58 1015.70 1015.74 1015.14 1015.54 1015.38 1014.94 1014.98 1015.26 1015.90 1016.22 1016.38 1016.22 1015.90 1015.98 1015.90 1015.46 1014.62 1014.66 1014.62 1014.94 1015.82 1016.18 1016.14 1015.50 1015.58 1015.82 1015.82 1015.30 1015.10 1015.10 1015.14 1015.10 1015.26 1015.46 1015.66 1015.90 1016.18 1016.46 1016.74 1016.94 1017.22 1017.58 1017.90 1018.10 1018.26 1018.30 1018.38 1018.50 1018.66 1018.78 1018.86
1013.66 1013.82 1013.98 1014.06 1014.06 1014.02 1014.18 1014.06 1014.14 1014.38 1014.42 1014.54 1014.58 1014.62 1014.66 1014.62 1014.46 1014.42 1014.58 1014.98 1015.10 1015.10 1015.06 1014.86 1014.50 1014.18 1014.26 1014.26 1014.18 1014.42 1014.58 1014.78 1014.86 1014.78 1014.62 1014.58 1014.58 1014.42 1014.14 1014.22 1014.10 1014.42 1014.34 1014.78 1015.58 1015.78 1014.70 1015.10 1015.54 1015.22 1014.98 1014.82 1014.82 1014.70 1014.82 1014.94 1015.10 1015.26 1015.46 1015.70 1015.98 1016.22 1016.46 1016.82 1017.18 1017.50 1017.78 1017.98 1018.10 1018.10 1018.18 1018.34 1018.46 1018.54
1013.10 1013.22 1013.34 1013.50 1013.58 1013.54 1013.62 1013.50 1013.58 1013.70 1013.82 1014.14 1014.26 1014.30 1014.10 1014.02 1013.82 1013.58 1013.38 1013.74 1013.82 1013.86 1013.94 1013.94 1013.70 1013.42 1013.30 1013.38 1013.50 1013.66 1013.90 1014.10 1014.10 1013.98 1013.78 1013.82 1014.10 1014.38 1014.34 1013.98 1013.46 1013.90 1013.86 1013.98 1014.70 1014.94 1014.58 1014.50 1014.94 1014.74 1014.42 1014.50 1014.62 1014.42 1014.50 1014.50 1014.66 1014.82 1015.02 1015.26 1015.50 1015.70 1016.02 1016.38 1016.70 1017.06 1017.38 1017.62 1017.78 1017.82 1017.90 1018.02 1018.10 1018.14
1012.58 1012.58 1012.66 1012.86 1012.98 1013.02 1013.06 1012.94 1013.14 1013.22 1013.54 1013.78 1013.86 1013.90 1013.78 1013.50 1013.34 1012.94 1013.10 1013.34 1013.26 1013.26 1013.30 1013.10 1012.94 1012.90 1012.90 1012.94 1013.02 1013.14 1013.26 1013.42 1013.54 1013.74 1014.14 1013.98 1013.82 1014.22 1014.22 1013.30 1013.30 1013.34 1013.66 1013.74 1013.82 1014.34 1014.42 1014.14 1014.30 1014.38 1014.10 1014.14 1014.06 1014.02 1013.98 1013.94 1014.06 1014.26 1014.54 1014.82 1015.06 1015.30 1015.62 1015.94 1016.22 1016.54 1016.86 1017.18 1017.34 1017.50 1017.62 1017.70 1017.78 1017.78
1012.06 1011.98 1012.06 1012.14 1012.34 1012.50 1012.42 1012.38 1012.58 1012.78 1013.22 1013.54 1013.42 1013.50 1013.50 1013.26 1013.02 1012.74 1013.02 1012.86 1012.62 1012.50 1012.46 1012.42 1012.42 1012.46 1012.42 1012.58 1012.62 1012.74 1013.02 1013.18 1013.10 1013.50 1013.62 1012.46 1013.18 1013.34 1013.10 1013.02 1012.58 1012.78 1013.10 1013.30 1013.30 1014.46 1013.70 1013.70 1013.74 1013.90 1013.78 1013.90 1013.62 1013.38 1013.38 1013.50 1013.54 1013.78 1014.10 1014.38 1014.66 1014.94 1015.26 1015.50 1015.74 1016.02 1016.38 1016.66 1016.86 1017.10 1017.30 1017.42 1017.54 1017.78
1011.66 1011.58 1011.54 1011.66 1011.74 1011.74 1011.70 1011.86 1012.06 1012.26 1012.66 1012.86 1012.86 1012.98 1013.06 1012.82 1012.58 1012.42 1012.66 1012.42 1012.34 1012.26 1012.42 1012.38 1012.46 1012.30 1012.14 1012.22 1012.30 1012.10 1012.22 1012.54 1012.58 1012.38 1011.86 1011.62 1012.26 1012.34 1011.86 1011.98 1012.46 1013.58 1013.10 1012.98 1012.90 1014.06 1013.66 1013.74 1013.26 1013.34 1013.94 1013.82 1012.82 1012.74 1012.78 1012.94 1013.06 1013.30 1013.54 1013.90 1014.38 1014.62 1014.86 1015.10 1015.30 1015.54 1015.86 1016.18 1016.42 1016.66 1016.90 1017.06 1017.42 1017.66
1011.38 1011.22 1011.18 1011.14 1011.26 1011.34 1011.34 1011.42 1011.54 1011.74 1012.02 1012.14 1012.10 1012.30 1012.58 1012.46 1012.14 1011.58 1011.70 1011.58 1011.86 1011.90 1011.74 1011.58 1011.50 1011.38 1011.22 1011.46 1011.54 1011.58 1011.66 1011.74 1011.58 1011.34 1011.02 1010.74 1010.86 1011.14 1011.62 1012.10 1012.70 1013.22 1013.26 1013.38 1012.90 1013.78 1013.50 1013.14 1012.78 1012.26 1011.74 1012.54 1012.66 1011.98 1012.14 1012.38 1012.42 1012.58 1012.90 1013.42 1013.90 1014.10 1014.50 1014.82 1015.02 1015.10 1015.38 1015.70 1015.98 1016.22 1016.42 1016.70 1017.18 1017.42
1011.14 1011.02 1010.86 1010.66 1010.58 1010.74 1010.86 1010.98 1011.10 1011.30 1011.50 1011.58 1011.54 1011.54 1011.74 1011.42 1010.78 1010.90 1011.54 1011.30 1011.26 1011.42 1011.26 1011.22 1011.10 1010.94 1010.86 1010.94 1010.98 1010.98 1011.06 1010.90 1010.50 1010.22 1009.82 1009.50 1009.46 1010.06 1010.82 1011.02 1011.58 1011.90 1012.22 1012.34 1011.46 1011.54 1011.34 1010.82 1011.26 1011.46 1011.70 1011.38 1010.90 1011.38 1011.46 1011.54 1011.70 1011.98 1012.14 1012.42 1012.94 1013.50 1014.02 1014.42 1014.62 1014.86 1015.14 1015.38 1015.66 1015.90 1016.06 1016.38 1016.78 1017.02
1010.58 1010.50 1010.34 1010.22 1010.02 1010.10 1010.26 1010.42 1010.62 1010.86 1011.22 1011.42 1011.66 1011.18 1010.98 1010.74 1010.90 1011.10 1010.86 1010.86 1010.98 1011.10 1011.06 1010.98 1010.90 1010.66 1010.66 1010.58 1010.50 1010.46 1010.38 1010.22 1009.62 1008.74 1008.42 1008.50 1008.46 1008.34 1008.42 1008.90 1009.70 1010.38 1010.78 1010.34 1009.90 1009.98 1010.22 1010.66 1010.22 1010.78 1010.98 1011.42 1011.38 1011.34 1011.70 1011.58 1011.10 1011.14 1011.46 1011.70 1011.90 1012.42 1012.98 1013.58 1014.10 1014.34 1014.74 1015.14 1015.50 1015.74 1015.82 1016.06 1016.42 1016.62
1009.90 1009.62 1009.66 1009.58 1009.66 1009.90 1010.14 1010.42 1010.58 1010.74 1010.90 1011.30 1011.30 1010.90 1010.86 1010.94 1010.98 1011.30 1011.46 1011.26 1011.26 1011.18 1010.98 1010.86 1010.74 1010.38 1010.18 1010.18 1009.98 1010.02 1010.66 1009.62 1008.14 1007.98 1008.02 1007.74 1007.74 1007.78 1007.62 1007.74 1008.22 1008.62 1008.94 1009.18 1008.94 1009.02 1009.54 1009.34 1009.30 1009.90 1010.06 1010.42 1011.46 1011.86 1011.38 1011.14 1010.98 1011.06 1011.50 1011.38 1011.54 1011.82 1012.14 1012.62 1013.30 1013.74 1014.18 1014.62 1014.90 1015.14 1015.42 1015.62 1015.98 1016.22
1009.26 1009.34 1009.46 1009.70 1009.90 1010.02 1010.10 1010.22 1010.38 1010.58 1010.90 1011.06 1010.94 1011.18 1011.30 1011.26 1011.38 1011.66 1011.66 1011.62 1011.42 1011.26 1011.06 1011.02 1010.70 1010.22 1009.66 1009.46 1009.82 1010.38 1010.26 1008.90 1008.34 1008.18 1007.78 1007.62 1007.42 1007.34 1007.22 1007.26 1007.34 1007.46 1007.78 1007.98 1008.14 1008.10 1008.22 1008.50 1008.42 1008.26 1008.70 1010.02 1010.94 1011.10 1010.86 1010.10 1009.90 1010.10 1010.26 1010.82 1011.18 1011.54 1011.94 1012.10 1012.54 1013.02 1013.46 1013.90 1014.38 1014.70 1015.10 1015.34 1015.70 1016.06
1009.22 1009.58 1009.82 1009.98 1010.06 1010.10 1010.10 1010.18 1010.26 1010.38 1010.46 1010.62 1010.70 1010.82 1010.98 1011.30 1011.58 1011.46 1011.46 1011.38 1011.30 1011.30 1011.10 1010.82 1010.42 1010.02 1009.66 1009.42 1009.22 1009.14 1009.02 1008.54 1008.46 1008.02 1007.46 1007.14 1006.82 1006.62 1006.50 1006.54 1006.66 1006.86 1006.86 1006.78 1007.02 1007.30 1007.38 1007.30 1007.26 1007.46 1008.46 1008.66 1008.90 1008.46 1008.86 1009.02 1009.46 1010.14 1010.14 1010.78 1011.50 1011.42 1011.62 1011.82 1012.10 1012.54 1012.90 1013.42 1013.78 1014.10 1014.34 1014.54 1015.06 1015.42
1009.58 1009.78 1009.90 1009.98 1009.98 1010.06 1010.14 1010.18 1010.26 1010.34 1010.34 1010.34 1010.42 1010.54 1010.78 1011.10 1011.10 1011.10 1011.14 1011.14 1011.18 1011.10 1010.82 1010.58 1010.34 1009.86 1009.46 1009.22 1009.06 1008.98 1008.74 1008.66 1008.38 1007.90 1007.42 1007.10 1006.62 1006.50 1006.42 1006.42 1006.22 1005.90 1005.50 1005.46 1005.58 1005.74 1005.94 1006.06 1006.18 1006.78 1007.30 1007.22 1007.18 1007.34 1007.58 1008.22 1009.02 1009.38 1009.78 1009.78 1009.82 1010.74 1011.42 1011.70 1011.82 1011.94 1012.30 1012.74 1013.14 1013.42 1013.62 1013.90 1014.22 1014.70
1009.54 1009.62 1009.70 1009.82 1009.94 1010.02 1010.10 1010.18 1010.18 1010.26 1010.30 1010.38 1010.38 1010.42 1010.50 1010.58 1010.66 1010.74 1010.86 1010.86 1010.86 1010.74 1010.54 1010.30 1009.98 1009.62 1009.30 1008.98 1008.94 1008.94 1008.86 1008.54 1007.94 1007.58 1007.30 1007.06 1006.46 1006.30 1006.02 1006.10 1005.74 1005.58 1005.10 1004.70 1004.34 1004.30 1004.54 1004.78 1005.18 1005.74 1006.38 1006.30 1006.50 1006.50 1006.34 1006.90 1007.94 1008.90 1009.18 1009.14 1009.42 1009.78 1009.98 1010.70 1011.14 1011.38 1011.54 1012.02 1012.54 1012.94 1013.26 1013.66 1013.98 1014.06
1009.42 1009.58 1009.66 1009.78 1009.82 1009.90 1010.06 1010.22 1010.30 1010.38 1010.42 1010.46 1010.54 1010.54 1010.54 1010.54 1010.54 1010.54 1010.50 1010.50 1010.58 1010.50 1010.34 1010.14 1009.78 1009.50 1009.26 1009.18 1008.94 1008.62 1008.46 1008.14 1007.62 1007.18 1007.02 1006.66 1006.10 1005.74 1005.82 1005.74 1005.02 1004.70 1004.46 1004.26 1004.02 1003.74 1003.82 1003.94 1004.30 1004.50 1004.70 1005.02 1005.58 1005.66 1006.18 1006.78 1006.98 1007.70 1008.38 1008.58 1008.58 1008.46 1008.94 1009.54 1010.22 1010.62 1010.98 1011.50 1012.26 1012.66 1012.86 1013.18 1013.50 1013.86
1009.46 1009.62 1009.86 1010.06 1010.18 1010.26 1010.38 1010.54 1010.70 1010.78 1010.78 1010.74 1010.74 1010.74 1010.74 1010.74 1010.70 1010.70 1010.66 1010.74 1010.66 1010.42 1010.30 1010.18 1009.98 1009.66 1009.34 1009.10 1008.82 1008.50 1008.22 1007.78 1007.38 1006.94 1006.78 1006.26 1006.14 1005.42 1005.50 1005.10 1004.18 1004.14 1003.90 1003.58 1003.46 1003.34 1003.30 1003.30 1003.30 1003.50 1003.82 1004.06 1004.26 1004.78 1005.82 1006.74 1006.54 1006.66 1007.26 1007.70 1008.14 1008.54 1008.86 1008.94 1008.98 1009.70 1010.54 1011.14 1011.66 1012.10 1012.54 1012.86 1013.06 1013.34
1009.58 1009.94 1010.10 1010.34 1010.38 1010.50 1010.62 1010.78 1011.02 1011.06 1011.06 1010.98 1010.90 1010.82 1010.82 1010.78 1010.70 1010.66 1010.70 1010.66 1010.58 1010.46 1010.38 1010.18 1009.94 1009.62 1009.38 1009.10 1008.70 1008.46 1008.06 1007.42 1007.02 1006.66 1006.62 1006.10 1005.82 1005.58 1004.86 1004.46 1003.70 1003.26 1003.14 1002.86 1002.82 1002.86 1002.90 1002.94 1003.22 1003.46 1003.62 1003.70 1003.86 1004.18 1004.58 1004.90 1005.34 1005.94 1006.18 1006.74 1007.46 1008.10 1008.30 1008.74 1008.90 1009.06 1009.50 1009.86 1010.78 1011.70 1012.10 1012.50 1012.90 1013.14
1009.54 1009.74 1010.02 1010.50 1010.66 1010.78 1010.86 1010.98 1011.10 1011.14 1011.14 1011.14 1011.06 1010.94 1010.82 1010.82 1010.82 1010.82 1010.74 1010.70 1010.58 1010.42 1010.26 1010.02 1009.82 1009.50 1009.34 1008.98 1008.62 1008.38 1007.90 1007.46 1006.86 1006.34 1005.86 1005.66 1005.26 1004.98 1004.50 1004.10 1003.22 1002.90 1002.74 1002.58 1002.58 1002.58 1002.78 1003.02 1003.34 1003.70 1003.90 1004.14 1004.38 1004.18 1003.94 1004.10 1004.74 1005.18 1005.70 1006.02 1006.38 1007.06 1007.62 1008.18 1008.90 1009.30 1009.38 1009.98 1010.50 1011.26 1011.78 1012.18 1012.58 1012.94
1010.06 1010.18 1010.34 1010.58 1010.74 1010.82 1010.90 1011.10 1011.14 1011.22 1011.22 1011.26 1011.26 1011.22 1011.06 1010.94 1010.90 1010.94 1010.90 1010.74 1010.70 1010.58 1010.42 1010.18 1009.86 1009.54 1009.18 1008.86 1008.54 1008.26 1007.78 1007.38 1006.82 1006.38 1005.82 1005.42 1004.98 1004.42 1003.98 1003.38 1002.94 1002.34 1002.06 1001.70 1001.66 1001.86 1002.14 1002.22 1002.46 1003.10 1003.62 1003.94 1004.14 1004.06 1003.90 1003.26 1003.54 1003.94 1004.86 1005.70 1006.18 1006.62 1007.34 1007.98 1008.34 1008.90 1009.42 1009.90 1010.30 1010.82 1011.50 1011.94 1012.18 1012.54
1010.10 1010.34 1010.54 1010.74 1010.86 1010.90 1011.06 1011.18 1011.22 1011.30 1011.30 1011.34 1011.30 1011.34 1011.38 1011.30 1011.10 1011.02 1010.94 1010.78 1010.66 1010.54 1010.38 1010.18 1009.86 1009.50 1009.18 1008.78 1008.42 1008.06 1007.70 1007.26 1006.62 1006.02 1005.54 1004.90 1004.54 1004.02 1003.50 1002.78 1002.58 1002.30 1001.98 1001.22 1000.94 1000.70 1000.74 1000.98 1001.42 1001.78 1002.14 1002.46 1002.82 1002.78 1002.10 1002.30 1002.70 1002.98 1003.58 1004.86 1005.82 1006.10 1006.78 1007.38 1008.02 1008.82 1009.10 1009.26 1010.06 1010.42 1010.82 1011.34 1011.78 1012.10
1010.30 1010.54 1010.70 1010.82 1010.94 1010.98 1011.02 1011.10 1011.18 1011.30 1011.34 1011.38 1011.42 1011.42 1011.42 1011.38 1011.26 1011.06 1010.86 1010.74 1010.62 1010.42 1010.14 1009.90 1009.62 1009.34 1009.02 1008.74 1008.42 1007.90 1007.42 1006.94 1006.42 1005.74 1004.98 1004.50 1004.02 1003.46 1003.22 1002.74 1002.14 1001.82 1001.42 1000.82 1000.74 1000.50 1000.62 1000.90 1000.98 1000.90 1001.10 1001.46 1001.70 1001.62 1001.74 1002.30 1003.22 1003.62 1003.30 1003.58 1004.54 1005.54 1005.94 1006.50 1007.42 1008.22 1008.82 1009.02 1009.50 1010.26 1010.74 1011.14 1011.30 1011.58
1010.30 1010.54 1010.66 1010.78 1010.90 1010.98 1011.06 1011.14 1011.26 1011.38 1011.42 1011.42 1011.50 1011.54 1011.46 1011.34 1011.22 1011.10 1010.94 1010.82 1010.62 1010.42 1010.18 1009.90 1009.58 1009.34 1009.02 1008.62 1008.30 1007.94 1007.30 1006.66 1005.98 1005.30 1004.54 1003.90 1003.42 1002.94 1002.50 1002.18 1001.82 1001.46 1001.14 1000.66 1000.42 1000.22 1000.30 1000.38 1000.62 1000.74 1000.54 1000.22 1000.34 1000.02 999.62 1000.78 1001.74 1001.86 1002.78 1003.26 1003.70 1004.90 1005.62 1005.42 1005.94 1007.18 1008.30 1009.02 1009.54 1010.30 1010.82 1010.90 1011.06 1011.42
1010.54 1010.58 1010.74 1010.86 1011.02 1011.14 1011.22 1011.30 1011.34 1011.38 1011.46 1011.46 1011.46 1011.38 1011.34 1011.30 1011.22 1011.10 1010.94 1010.78 1010.58 1010.34 1010.18 1009.98 1009.70 1009.30 1008.90 1008.54 1008.18 1007.70 1007.26 1006.70 1005.90 1004.98 1004.22 1003.46 1002.78 1002.30 1001.90 1001.54 1001.26 1000.94 1000.70 1000.50 1000.34 1000.06 1000.06 999.94 999.86 999.70 999.46 998.78 998.54 998.94 999.70 1000.86 1001.82 1002.46 1003.10 1003.54 1003.06 1002.90 1004.10 1005.10 1005.34 1006.42 1007.98 1008.54 1009.34 1010.34 1010.94 1010.86 1011.02 1011.70
1010.66 1010.82 1010.94 1011.02 1011.10 1011.22 1011.26 1011.30 1011.30 1011.34 1011.30 1011.30 1011.22 1011.22 1011.22 1011.22 1011.10 1010.98 1010.86 1010.74 1010.62 1010.46 1010.22 1009.94 1009.62 1009.30 1008.98 1008.58 1008.26 1007.98 1007.42 1006.70 1005.90 1005.02 1004.26 1003.46 1002.62 1002.02 1001.54 1001.26 1001.02 1000.74 1000.54 1000.22 1000.02 999.74 999.50 999.18 999.02 999.22 999.58 1000.02 1000.18 999.94 1000.50 1001.34 1002.38 1003.06 1003.74 1004.46 1004.82 1004.78 1005.02 1005.14 1005.38 1005.90 1007.02 1008.14 1009.06 1010.10 1010.58 1010.66 1011.02 1011.66
1010.74 1010.82 1010.94 1010.94 1010.98 1011.06 1011.10 1011.10 1011.18 1011.14 1011.06 1011.10 1011.10 1011.06 1011.06 1010.98 1010.94 1010.90 1010.74 1010.58 1010.54 1010.42 1010.22 1009.94 1009.66 1009.42 1009.10 1008.70 1008.34 1007.98 1007.62 1006.94 1006.22 1005.42 1004.70 1003.86 1002.78 1001.90 1001.34 1001.06 1000.78 1000.46 1000.30 1000.18 1000.10 1000.10 999.94 999.54 999.54 999.70 999.98 1000.34 1000.62 1000.98 1001.66 1001.78 1002.86 1003.86 1004.46 1004.98 1005.50 1005.74 1006.06 1006.10 1006.10 1006.06 1006.50 1007.66 1008.82 1009.82 1010.46 1011.06 1011.18 1011.54
1010.62 1010.74 1010.78 1010.86 1010.90 1010.94 1011.02 1011.06 1011.02 1010.98 1010.94 1011.02 1011.02 1011.06 1011.02 1010.90 1010.90 1010.74 1010.66 1010.58 1010.50 1010.38 1010.18 1009.94 1009.66 1009.46 1009.18 1008.82 1008.42 1008.10 1007.62 1007.02 1006.38 1005.70 1004.98 1004.26 1003.54 1002.66 1001.98 1001.66 1001.34 1001.02 1000.94 1001.14 1001.02 1000.74 1000.38 1000.06 999.98 1000.06 1000.34 1000.58 1001.18 1001.46 1002.78 1003.54 1004.02 1004.22 1004.82 1005.58 1006.22 1006.66 1006.98 1007.10 1007.06 1007.10 1007.38 1007.58 1007.82 1008.18 1008.74 1009.42 1010.46 1011.18
1010.66 1010.70 1010.74 1010.82 1010.86 1010.94 1010.94 1010.94 1010.90 1010.94 1010.90 1010.94 1011.02 1011.06 1011.02 1010.90 1010.74 1010.70 1010.66 1010.58 1010.46 1010.30 1010.06 1009.86 1009.58 1009.38 1009.10 1008.78 1008.42 1007.98 1007.54 1007.14 1006.58 1005.94 1005.34 1004.74 1004.22 1003.74 1003.14 1002.42 1001.90 1001.74 1001.78 1001.74 1001.66 1001.46 1001.14 1000.82 1000.70 1000.50 1000.82 1001.38 1001.50 1001.94 1002.78 1003.42 1004.54 1005.26 1005.66 1005.98 1006.34 1006.86 1007.58 1007.78 1007.82 1007.94 1008.18 1008.42 1008.58 1008.58 1008.66 1008.98 1009.34 1009.66
1010.62 1010.66 1010.78 1010.82 1010.82 1010.78 1010.78 1010.82 1010.78 1010.82 1010.90 1011.02 1011.06 1010.98 1010.90 1010.82 1010.74 1010.66 1010.50 1010.42 1010.26 1010.10 1009.90 1009.70 1009.50 1009.26 1008.98 1008.62 1008.34 1008.02 1007.58 1007.14 1006.74 1006.26 1005.66 1005.22 1004.86 1004.38 1003.58 1002.86 1002.66 1002.82 1002.94 1002.66 1002.34 1002.42 1002.10 1001.86 1001.78 1001.58 1001.90 1002.34 1002.30 1002.62 1003.34 1003.78 1004.38 1004.78 1005.46 1006.06 1006.78 1007.26 1007.54 1007.82 1008.18 1008.38 1008.46 1008.62 1008.74 1008.86 1009.10 1009.50 1009.66 1009.82
Wind_Speed
6 5 5 6 6 6 4 4 4 5 3 4 5 6 7 6 5 3 3 5 5 4 6 5 4 8 8 7 6 6 7 8 9 6 7 7 7 10 14 15 15 15 15 15 15 15 15 15 14 14 14 13 13 12 11 10 9 9 9 8 7 6 5 4 4 4 4 4 4 4 3 4 3 4
5 5 5 5 6 5 4 5 5 4 5 5 5 5 5 6 7 5 5 7 5 4 3 5 5 3 7 7 6 6 8 9 10 7 8 8 8 12 14 15 15 15 15 15 15 15 14 14 14 14 14 14 13 13 12 11 10 10 9 8 8 7 6 4 4 5 5 5 4 4 4 4 3 3
5 5 6 5 6 5 5 4 4 4 4 5 5 5 4 5 5 6 5 4 6 5 6 6 5 4 5 6 7 6 7 8 10 9 8 9 12 14 11 14 15 15 15 15 14 14 14 14 14 14 13 13 13 13 12 12 11 11 10 9 9 8 7 6 6 6 6 6 5 4 4 4 4 4
5 6 6 6 7 5 4 5 5 5 4 4 5 5 6 6 5 4 5 7 11 4 6 5 4 5 5 4 6 7 6 7 11 9 9 9 11 9 8 12 15 15 15 15 15 15 15 14 14 14 14 14 13 12 11 12 11 11 10 10 9 8 7 7 6 6 6 6 5 5 5 5 5 4
5 6 7 7 7 4 5 6 6 5 5 4 5 4 5 6 5 6 6 7 11 5 4 4 5 2 3 3 6 7 7 6 7 8 9 8 8 8 8 8 12 15 15 16 16 16 15 15 15 15 15 14 13 13 13 13 12 11 11 10 9 9 8 8 8 8 7 7 6 5 5 5 5 5
7 6 7 8 7 5 7 6 7 7 6 5 5 6 6 6 6 6 6 8 6 12 1 4 3 3 4 5 3 8 8 8 5 8 8 7 8 8 8 8 8 14 15 16 17 17 16 15 15 15 15 15 14 13 13 13 12 12 11 11 10 10 9 9 10 9 8 7 7 6 6 5 5 5
7 7 8 9 7 4 6 7 7 6 6 5 6 7 6 7 7 6 7 6 8 10 9 4 4 4 4 7 6 6 7 7 6 7 8 9 7 7 8 8 7 12 14 16 16 17 16 16 15 15 15 15 14 14 13 13 12 12 12 12 11 11 10 10 10 10 9 9 8 7 6 6 5 5
8 9 9 10 9 6 7 8 7 7 6 6 7 7 7 6 7 6 6 8 8 6 8 4 6 3 4 6 5 4 4 6 6 7 7 5 7 7 7 8 8 10 15 15 16 16 16 16 16 16 15 15 14 14 14 13 13 13 13 12 12 12 11 11 11 11 10 9 8 7 6 6 6 5
9 9 10 11 8 7 9 9 8 8 8 8 7 8 7 7 7 5 6 7 6 7 10 7 3 3 4 3 3 3 5 5 5 4 6 7 8 8 7 7 8 11 14 14 15 15 16 16 16 16 16 15 15 14 14 14 13 14 14 13 13 12 12 12 11 11 11 10 9 8 6 6 6 5
9 9 10 10 8 8 10 11 10 9 9 8 8 9 8 8 6 6 6 5 6 7 9 8 8 2 5 4 4 4 5 6 6 6 6 4 5 6 7 8 7 6 6 6 8 10 12 14 16 16 15 16 15 15 14 14 14 14 14 14 13 13 13 12 12 12 11 11 10 8 7 7 6 6
9 10 10 9 9 10 11 12 11 10 9 8 9 10 10 8 7 8 7 6 7 8 8 8 7 8 5 5 8 4 5 5 7 7 6 8 6 6 7 9 6 6 7 9 12 11 10 12 11 14 17 16 16 15 15 14 15 15 15 15 14 13 13 12 12 12 12 11 10 9 9 8 7 7
10 11 10 10 10 11 11 11 11 9 9 8 9 9 7 7 7 9 7 5 7 7 8 9 10 7 7 4 5 1 1 4 6 6 6 9 8 8 7 9 9 7 7 8 8 9 10 10 12 13 13 15 15 14 13 14 14 16 15 15 14 14 13 13 13 13 12 11 10 10 9 9 8 7
10 10 10 10 11 12 15 16 14 12 11 8 10 10 8 8 9 9 7 6 7 8 8 10 8 8 8 8 6 6 7 9 12 3 7 9 9 6 6 9 8 7 7 8 7 8 8 8 8 8 7 8 11 11 14 9 14 16 15 15 14 14 14 13 13 13 13 12 11 10 10 10 9 8
10 11 10 11 16 16 17 17 17 17 17 16 13 11 8 10 9 9 8 7 7 8 9 10 10 10 11 10 8 9 10 8 4 4 6 8 8 3 8 7 7 7 7 8 9 10 6 8 8 7 8 7 7 6 7 8 10 13 15 15 14 14 14 14 14 14 13 12 11 11 11 10 10 9
11 10 11 10 12 14 14 15 18 18 19 19 19 19 17 13 11 10 10 10 9 9 10 10 9 10 12 11 9 9 10 6 9 9 6 8 5 7 8 12 5 6 9 9 9 11 7 7 9 8 8 7 7 6 8 13 15 15 16 16 15 15 15 14 14 14 14 13 12 12 11 10 10 10
10 10 10 10 9 10 12 12 12 15 18 19 19 20 19 19 18 16 13 12 10 10 11 11 11 10 11 12 8 9 8 10 7 6 5 7 8 9 10 10 11 4 10 10 9 12 3 6 8 9 8 7 7 9 12 15 16 16 15 16 16 16 15 15 15 14 14 13 12 11 11 11 12 11
11 10 10 10 10 10 15 13 12 11 12 16 20 19 19 19 19 19 20 19 16 11 11 12 13 11 11 12 12 10 10 4 6 5 7 8 10 11 11 12 11 7 8 6 7 11 7 7 8 10 8 8 8 9 12 16 16 16 16 16 16 16 16 15 15 14 14 13 12 12 11 11 11 11
12 12 11 11 11 10 10 10 12 12 12 12 11 11 12 13 17 19 21 20 21 18 14 13 15 13 10 14 12 9 5 6 8 8 12 10 11 12 15 15 12 3 8 8 4 8 5 6 7 10 9 8 8 8 12 16 16 16 16 16 16 16 16 16 15 14 14 13 13 13 12 11 11 10
12 11 11 12 13 11 10 10 12 12 12 12 12 12 12 13 14 14 14 13 14 14 14 15 17 17 13 14 13 9 7 10 11 12 14 13 12 11 9 9 8 6 8 8 7 13 5 6 7 10 8 7 9 7 10 15 16 17 17 17 16 16 16 16 15 15 15 14 14 14 12 13 12 11
11 11 12 12 12 12 12 14 17 16 13 11 13 14 14 13 13 13 14 15 16 16 15 15 17 17 16 16 14 12 10 8 8 10 10 7 5 8 11 15 9 10 7 11 10 9 8 6 8 8 7 7 8 7 7 12 16 17 17 17 17 17 16 16 16 16 16 16 16 14 14 14 13 12
11 11 12 12 12 12 12 15 17 18 16 13 14 14 14 14 13 14 7 13 19 21 21 23 23 23 22 21 20 18 16 12 9 9 10 12 10 11 14 15 11 10 7 8 11 9 10 6 8 7 6 8 9 8 9 8 14 18 17 16 17 16 16 17 17 17 17 17 16 15 15 15 14 13
11 12 17 15 13 13 13 16 18 18 15 13 14 14 15 16 16 13 6 8 11 19 23 24 25 25 24 23 23 22 17 15 13 11 16 16 10 14 14 15 12 7 6 7 10 7 12 4 7 7 2 2 5 8 7 8 10 14 14 16 17 17 17 18 18 18 18 18 17 16 16 15 12 7
11 11 12 17 17 15 15 18 17 18 16 14 14 14 14 16 17 12 8 12 12 10 10 12 13 16 18 18 17 17 21 20 17 16 18 16 13 15 17 14 10 8 8 6 12 9 7 6 7 8 2 7 6 6 8 9 9 8 8 9 10 15 17 19 19 19 19 18 18 17 16 15 9 5
11 11 11 12 16 20 20 18 18 18 19 16 14 12 13 15 18 11 12 11 9 11 12 12 12 14 13 12 13 13 13 14 17 19 18 18 16 16 14 13 10 10 4 4 13 11 8 10 11 12 14 10 7 6 8 9 10 10 9 8 8 12 16 16 15 20 19 19 19 18 17 14 10 6
11 10 10 10 13 18 20 20 20 19 18 18 15 14 14 15 17 12 8 12 13 12 12 11 11 11 9 9 10 11 11 12 14 15 18 19 18 16 16 17 14 12 7 11 20 13 14 13 13 9 10 10 6 4 5 9 8 10 11 12 11 9 9 10 8 10 14 17 18 17 16 13 14 10
10 10 10 10 13 18 18 19 19 19 17 17 12 15 17 19 17 14 13 12 10 10 10 10 10 10 10 10 9 10 10 12 15 17 16 16 18 17 17 18 18 13 11 17 27 18 13 10 14 11 10 10 7 5 3 5 8 10 9 10 11 11 12 11 9 9 9 8 8 10 12 13 14 16
11 10 10 11 14 13 12 13 14 15 17 13 13 20 19 18 18 13 9 10 10 11 11 12 12 12 10 10 11 9 5 12 17 15 14 16 15 15 16 15 13 13 11 13 18 17 14 14 11 14 14 11 8 8 11 9 5 6 7 10 11 10 11 11 12 11 9 9 9 14 15 14 15 16
9 8 6 1 5 3 3 7 10 11 9 8 12 11 13 15 13 8 9 9 10 11 11 11 12 13 13 12 7 1 6 15 14 13 13 13 14 14 13 13 15 11 13 15 16 17 16 16 14 14 15 12 13 13 13 11 7 11 14 10 8 8 8 10 11 10 10 9 8 8 7 7 6 8
1 5 6 6 5 4 3 2 1 3 7 10 11 12 11 7 4 6 6 7 7 8 10 10 11 11 10 9 7 6 12 14 12 14 14 13 13 13 13 12 10 11 15 15 16 16 18 18 18 14 10 13 17 16 14 14 12 9 11 12 8 10 10 9 10 11 10 9 10 9 9 9 7 8
3 5 5 3 4 3 2 2 3 3 2 4 7 8 6 3 5 4 5 5 6 7 8 8 10 9 9 8 3 5 9 11 13 13 14 13 14 12 12 12 11 13 16 17 18 18 19 19 18 15 14 16 16 17 15 12 9 9 10 14 13 4 5 8 11 10 11 11 11 10 8 8 9 9
7 5 3 2 3 4 6 6 6 5 5 4 3 3 2 2 3 3 3 5 6 6 7 8 9 9 9 9 9 6 7 11 12 11 13 13 14 13 12 12 13 12 13 16 18 19 19 19 18 17 17 16 15 16 17 14 11 11 12 12 14 14 13 13 10 11 11 10 9 8 7 6 6 8
3 2 2 2 3 3 4 3 3 3 3 3 4 4 3 3 3 4 6 6 5 6 7 8 8 9 8 9 9 9 9 10 11 11 12 13 15 13 12 12 15 13 13 14 15 17 17 17 17 17 19 18 18 17 11 11 14 12 12 13 14 12 10 15 13 12 11 10 8 8 8 8 8 7
4 5 5 4 4 5 4 4 4 4 4 4 3 3 3 3 3 3 3 4 5 6 6 8 8 10 9 10 9 10 11 12 12 10 12 13 14 15 13 16 17 13 14 13 13 14 15 16 17 17 16 16 17 16 12 11 12 13 14 14 13 11 10 13 14 13 10 10 9 9 8 7 7 8
6 5 5 5 5 4 5 4 4 4 4 4 5 4 4 4 5 5 4 4 5 6 7 8 9 9 9 10 10 10 11 12 12 13 13 14 13 15 16 17 17 15 15 14 12 12 13 14 12 12 12 13 10 9 12 16 15 13 14 13 14 14 11 9 9 12 14 13 12 10 8 7 6 6
5 5 6 5 4 4 4 4 4 4 4 5 5 7 7 5 5 6 6 6 7 8 8 9 9 9 9 10 10 11 11 12 13 13 12 12 13 14 16 16 17 15 14 13 11 9 9 11 11 11 8 5 6 4 6 10 11 12 11 12 14 13 11 11 12 10 10 8 10 11 8 6 7 6
6 5 6 5 4 4 5 4 3 5 5 5 5 5 7 8 6 7 8 8 8 8 8 8 9 10 10 10 11 11 12 12 13 13 14 12 13 13 14 15 16 17 15 15 13 10 11 13 14 14 13 11 12 13 12 16 17 14 17 14 12 12 10 10 10 10 10 9 8 9 9 8 8 7
7 5 5 5 4 4 4 3 4 4 4 4 4 5 5 6 7 7 7 7 6 6 7 8 8 9 10 11 11 11 12 13 14 13 13 12 12 13 15 15 15 15 16 16 14 14 12 13 12 14 15 15 17 18 18 11 19 16 16 15 12 13 14 12 11 10 10 11 10 10 9 8 7 7
7 5 5 4 3 3 2 3 3 4 4 4 4 4 4 4 5 5 6 6 7 7 8 8 9 9 10 10 11 12 11 11 13 13 13 12 12 13 12 14 13 10 12 14 13 13 8 9 12 15 16 16 17 17 16 6 7 9 17 16 16 15 15 15 14 13 10 9 11 7 7 8 8 8
6 5 5 4 3 3 3 2 1 1 1 1 1 2 3 3 4 5 5 6 6 7 8 8 9 10 11 11 10 10 12 12 13 10 13 10 11 11 9 10 12 12 13 12 9 9 8 9 10 13 17 16 16 18 19 15 16 14 15 17 15 15 14 15 15 13 11 10 7 6 2 3 7 9
4 4 4 4 2 2 1 0 0 0 1 1 1 1 2 3 4 4 5 6 7 8 8 8 9 10 11 11 12 12 12 13 14 12 13 11 11 11 11 11 12 12 11 10 10 7 8 11 11 14 17 20 15 4 2 6 5 5 7 12 25 23 17 14 14 14 10 9 9 8 6 6 6 1
4 5 3 3 3 2 2 1 0 0 0 0 1 1 1 2 3 4 5 6 6 7 8 8 9 10 10 11 11 11 13 13 13 13 13 13 13 13 13 13 11 10 11 12 11 10 10 10 11 2 7 8 9 11 10 9 10 11 10 6 2 6 11 12 12 13 10 11 11 10 9 8 7 6
4 3 2 2 2 1 2 1 1 1 1 1 2 3 3 3 3 5 5 6 6 6 6 7 8 9 9 10 10 11 11 13 13 13 13 14 14 12 12 10 10 8 8 6 3 4 6 7 10 9 5 5 5 6 3 5 9 9 8 8 7 8 11 11 11 12 15 13 11 9 5 5 5 5
3 2 2 2 1 1 1 1 1 1 1 1 2 2 3 4 4 5 5 5 5 5 6 7 7 7 8 9 9 9 10 11 12 13 13 12 12 12 9 7 6 5 5 6 4 5 6 9 10 11 9 9 9 11 12 10 8 9 10 9 8 6 9 13 14 12 11 15 14 13 9 8 7 6
2 2 2 1 1 1 1 1 2 1 2 2 2 2 2 2 4 4 4 4 4 5 6 6 6 7 7 8 8 8 8 9 10 11 11 11 11 9 7 6 7 7 6 6 7 6 7 8 9 11 12 10 10 14 16 15 12 9 8 7 6 8 8 6 6 9 9 7 9 8 13 14 8 11
2 2 2 1 1 2 2 1 2 3 3 3 3 3 2 2 2 3 3 4 4 5 5 5 6 6 7 7 7 8 9 9 9 9 9 9 9 8 9 10 10 9 7 6 8 8 8 9 9 11 13 11 11 13 13 12 12 11 10 10 8 6 5 4 5 6 5 4 3 7 6 10 11 11
Wind_Direction
211 214 210 213 227 232 218 217 212 210 200 201 182 177 176 171 177 233 259 260 243 283 203 225 252 206 215 219 216 216 220 226 218 217 220 222 223 224 222 223 226 227 226 227 230 231 232 234 236 239 242 244 244 244 244 237 234 237 239 239 243 245 246 235 229 236 254 264 265 267 277 295 322 343
204 212 217 213 227 235 216 222 217 206 204 199 195 203 200 173 189 193 216 268 214 248 270 215 246 218 214 212 219 211 224 223 216 218 221 223 225 226 223 223 225 229 230 230 231 232 234 236 237 238 240 241 243 244 244 241 236 235 234 234 237 240 240 233 224 233 244 249 258 266 276 298 319 336
197 210 221 218 231 229 226 231 228 224 204 207 197 206 191 208 200 187 184 253 273 192 234 245 237 223 218 211 217 221 225 221 213 220 221 225 227 226 228 226 226 228 231 232 233 234 235 236 237 238 238 240 241 242 241 241 240 236 234 232 234 236 236 232 224 233 236 238 242 260 278 291 302 308
204 211 221 223 225 228 226 238 234 230 220 200 200 205 203 210 206 185 189 213 259 195 211 236 249 228 221 203 212 229 233 224 218 223 224 226 227 227 231 231 229 229 230 233 234 235 236 236 237 238 239 238 238 238 235 233 235 235 234 232 231 230 231 226 220 220 221 222 231 253 268 277 284 293
218 217 223 229 228 213 221 232 237 235 230 211 213 207 205 221 206 188 198 221 258 275 223 228 237 247 198 238 208 225 230 232 224 221 228 225 223 224 225 229 229 227 227 230 233 235 236 236 236 237 237 237 236 235 233 234 234 234 234 231 227 225 224 220 218 216 211 212 223 239 257 265 271 281
223 221 228 237 231 210 224 232 233 232 232 221 221 221 207 222 222 200 196 230 232 264 240 257 260 268 190 233 194 209 222 235 219 221 226 222 219 222 223 225 232 227 226 227 230 233 235 236 236 237 238 236 235 234 233 231 230 231 231 229 225 221 217 217 218 215 208 208 214 230 242 255 262 272
216 223 228 237 232 211 224 236 238 234 233 228 227 235 216 226 228 208 208 214 240 251 262 209 237 226 212 210 230 219 225 230 213 220 226 223 222 223 219 222 231 231 228 228 228 230 233 235 236 237 237 235 233 231 229 227 225 225 226 226 224 220 214 213 215 213 207 204 213 221 229 237 250 262
212 219 225 233 228 216 222 235 236 235 233 232 234 239 234 225 232 219 202 218 234 247 257 253 214 229 212 244 247 239 234 232 228 220 233 230 231 229 225 223 229 232 229 230 229 230 231 233 234 235 235 232 229 227 224 221 220 220 222 224 223 218 213 212 211 212 206 204 206 213 217 224 236 249
217 220 223 231 224 219 226 236 236 231 228 229 229 241 239 232 234 224 208 220 224 249 255 266 234 225 238 249 248 218 225 249 246 245 231 224 225 230 230 228 232 236 234 234 233 231 230 230 231 232 231 228 226 223 220 217 216 217 218 221 221 218 214 211 209 209 207 203 203 205 204 215 227 237
219 222 226 230 223 221 225 232 232 230 230 226 230 237 238 234 229 229 227 211 222 233 253 260 278 231 236 268 245 218 205 226 247 256 251 250 234 227 240 235 233 227 226 227 233 234 234 234 232 230 230 228 224 222 218 215 213 213 216 218 220 219 215 210 207 207 206 204 203 197 193 203 216 226
222 225 227 226 222 224 228 232 231 231 232 228 233 232 235 234 225 234 229 214 221 230 249 257 247 264 243 217 258 238 211 226 224 233 245 258 234 225 225 242 236 229 235 236 230 226 219 219 220 224 228 228 224 220 217 214 212 212 213 214 217 218 215 210 206 205 205 205 200 192 190 198 213 222
223 226 227 227 223 226 230 231 235 226 233 232 239 238 234 235 231 238 235 217 223 233 240 247 258 243 259 248 243 282 162 249 260 225 218 244 244 231 227 230 229 226 222 235 234 232 233 237 231 232 231 232 231 224 219 216 214 214 212 213 215 216 215 211 207 205 205 204 196 189 188 195 209 217
224 226 228 228 228 227 231 231 233 229 224 224 233 239 223 229 230 239 239 229 225 239 241 255 252 258 258 253 251 249 230 227 244 193 198 240 249 238 241 245 225 225 220 234 233 233 214 223 226 221 226 231 227 225 216 214 212 216 213 212 213 214 213 211 208 206 205 201 193 187 187 194 202 211
224 227 227 231 230 229 231 232 233 234 231 227 227 235 219 226 229 235 240 236 233 238 246 246 252 254 254 256 241 246 245 245 260 230 205 229 245 233 254 269 237 212 221 236 240 240 213 214 231 217 225 234 217 216 205 216 211 216 215 212 211 212 212 211 209 207 205 200 190 187 189 194 199 208
227 228 229 234 235 232 233 233 233 234 234 233 234 237 233 222 218 229 231 237 233 237 242 247 244 246 256 255 249 243 252 240 231 235 219 234 238 228 242 255 258 190 199 225 240 250 215 196 228 224 223 222 214 205 210 214 213 213 211 210 209 209 210 209 208 206 205 201 192 187 190 195 200 206
230 230 229 230 233 233 231 231 234 236 238 238 237 237 238 238 232 225 222 231 237 232 242 247 240 242 247 254 244 249 241 244 239 238 233 227 229 238 239 245 248 216 181 212 225 247 200 181 222 236 223 216 212 208 208 209 209 211 211 209 207 206 207 208 207 206 204 201 195 191 192 198 202 203
230 230 231 233 232 235 232 232 235 236 238 236 237 241 243 245 241 239 235 232 234 237 239 245 251 233 245 251 245 233 240 219 231 227 233 231 231 232 241 245 250 237 189 195 228 247 221 175 213 233 228 211 211 212 211 211 207 208 209 206 204 203 204 206 204 203 202 199 196 197 199 205 208 205
229 228 229 232 238 234 228 228 230 234 239 242 238 235 236 239 243 240 237 238 241 242 242 246 252 247 223 246 246 239 213 198 223 225 239 228 235 233 235 238 240 249 133 186 205 259 224 177 206 232 232 213 219 212 208 208 208 207 207 204 202 200 200 201 201 200 199 198 198 199 201 209 214 212
227 226 226 231 237 236 230 228 226 229 234 237 242 242 238 235 239 238 234 230 233 236 237 243 248 253 243 245 249 241 209 213 220 223 235 231 232 240 254 263 241 231 174 173 174 248 225 164 200 232 224 218 225 214 212 209 208 207 205 202 200 198 197 197 197 198 198 198 199 200 200 210 215 214
229 226 225 228 234 236 234 231 224 225 230 236 241 245 247 248 243 241 230 228 230 233 234 237 243 248 248 246 247 239 223 218 222 239 247 244 230 236 244 248 227 230 172 182 191 237 239 173 194 230 218 209 228 217 216 210 207 209 205 201 198 197 195 195 194 196 198 199 201 200 204 210 212 213
231 228 225 226 232 234 235 232 223 223 221 236 240 244 249 249 250 251 231 219 228 234 236 240 243 248 251 252 251 248 233 222 210 230 245 241 226 236 248 253 239 234 162 199 197 221 250 171 196 226 215 204 220 215 213 209 208 209 206 200 198 196 195 194 194 195 197 200 201 203 208 211 211 212
236 233 228 226 229 233 236 229 223 221 213 231 237 243 249 254 253 254 234 240 230 227 232 236 240 244 248 250 253 252 242 230 221 225 239 243 226 239 241 250 247 240 186 193 175 193 238 169 200 209 269 228 233 217 211 205 212 206 207 203 199 197 194 195 195 193 196 200 201 205 209 212 209 193
237 239 233 228 228 232 234 230 225 220 210 228 233 238 245 253 257 253 234 239 241 240 236 243 245 252 249 248 249 250 245 232 228 231 241 247 234 239 243 245 252 261 251 162 170 207 246 202 227 185 173 235 234 199 201 204 203 195 193 197 203 202 195 198 195 192 196 199 203 207 208 213 185 190
236 237 240 233 226 231 235 234 228 223 211 222 234 235 242 250 258 253 243 245 245 251 246 248 238 241 239 238 239 244 245 238 230 234 238 242 240 243 253 256 242 231 214 116 173 193 225 219 222 200 209 210 230 202 186 203 200 197 186 181 189 200 200 200 199 195 196 200 204 207 208 204 176 182
237 237 236 240 230 226 230 233 234 231 223 221 233 237 241 244 251 266 266 260 242 250 258 258 256 255 248 238 234 236 236 237 238 235 234 238 238 231 233 239 234 228 172 179 192 191 218 211 226 203 225 225 217 163 206 199 196 192 190 185 187 184 181 193 192 197 205 206 206 208 211 197 186 188
236 236 235 238 233 229 227 230 233 235 234 231 232 247 250 259 264 262 256 268 273 264 263 262 261 260 253 247 241 233 231 239 242 239 238 236 237 235 230 230 231 227 188 190 190 203 219 227 220 211 212 210 238 222 172 221 203 198 186 188 188 180 179 180 187 193 187 194 206 212 216 201 192 200
233 234 236 239 242 244 245 242 242 240 238 236 234 241 250 259 271 283 284 282 280 275 270 268 268 267 263 253 242 236 236 253 250 250 246 246 245 245 245 241 232 223 200 189 198 207 214 233 211 211 214 200 205 224 229 217 225 175 188 193 192 184 183 174 183 190 188 191 204 205 212 212 198 204
231 239 243 284 32 7 309 257 253 254 254 244 255 262 264 265 273 281 281 280 274 275 276 273 271 269 267 271 265 230 237 255 264 268 265 263 256 256 255 245 237 208 192 196 203 212 217 227 229 217 210 172 200 218 228 232 225 186 191 190 188 185 182 183 185 186 189 188 191 197 192 211 187 190
276 76 74 41 30 18 9 25 279 247 245 244 249 255 260 276 292 259 250 262 269 272 272 273 274 277 280 281 281 193 223 252 268 270 270 265 263 256 254 249 227 199 199 204 205 208 216 222 228 218 191 192 207 218 212 215 196 196 187 159 183 203 191 188 185 185 187 183 192 190 192 196 183 182
323 315 319 309 291 286 276 324 335 315 281 260 254 254 244 197 214 227 245 256 259 266 275 278 279 284 292 294 312 201 231 244 251 259 265 269 266 259 257 255 238 215 209 204 204 207 213 220 223 212 203 209 208 216 216 213 205 193 183 183 187 141 181 189 194 192 183 186 191 190 196 187 187 169
266 277 285 301 274 262 264 256 257 264 280 288 294 297 244 234 235 231 230 246 267 277 283 285 289 291 290 293 288 261 241 248 250 250 260 264 265 264 260 254 252 234 223 216 212 209 212 217 218 210 212 214 214 218 215 204 195 176 189 188 173 184 191 189 192 192 186 180 177 184 178 180 180 181
206 190 115 78 49 68 69 58 61 56 28 14 6 356 357 343 325 296 276 274 271 271 273 280 284 285 288 289 284 281 266 259 260 255 256 257 265 262 264 262 254 247 240 224 224 221 217 218 216 214 214 210 212 217 207 194 198 182 181 191 198 199 161 181 186 189 181 160 158 179 182 174 173 175
96 95 76 64 59 53 60 50 40 26 12 10 2 358 355 344 328 325 338 325 311 303 308 301 299 296 296 290 287 281 277 272 271 264 262 262 262 269 259 257 261 256 250 239 223 221 220 224 222 219 215 218 217 207 180 197 206 186 181 191 187 190 178 192 181 173 156 158 172 170 175 184 175 173
99 88 92 77 77 62 55 52 35 16 5 355 351 355 352 354 350 347 341 325 315 314 306 302 300 296 297 292 290 286 280 280 275 271 263 268 266 266 264 263 260 256 255 254 241 226 219 221 221 225 225 228 229 220 195 199 199 188 192 179 178 185 190 177 183 164 167 175 166 165 170 180 187 181
90 98 87 82 73 74 68 56 29 14 11 5 358 352 346 353 355 348 339 338 332 326 321 313 307 300 298 294 296 294 291 289 287 286 275 266 263 260 264 265 265 262 257 258 250 233 220 218 213 217 217 221 231 261 212 209 203 194 184 187 176 177 173 169 167 175 164 145 151 165 162 162 183 192
86 91 99 84 62 57 57 44 30 25 16 11 3 350 348 347 353 352 343 337 332 321 316 312 309 309 306 304 302 299 296 292 288 285 285 276 271 267 266 265 269 266 256 249 248 232 221 216 198 201 204 205 209 220 232 216 202 185 182 185 180 165 155 164 164 159 152 144 152 150 161 178 191 183
94 81 84 86 79 65 62 45 40 27 21 8 7 1 353 340 339 332 319 312 308 308 307 307 304 307 308 307 307 304 301 299 294 290 281 278 272 271 270 268 264 269 269 261 251 244 225 215 198 203 205 204 206 215 222 186 204 195 172 171 167 167 160 162 151 157 162 151 153 165 170 162 182 186
111 110 99 93 86 71 74 61 51 37 28 13 1 343 340 312 302 307 311 322 322 324 321 320 315 313 313 312 310 306 298 291 288 285 278 272 268 265 264 274 279 276 278 276 267 250 219 217 207 206 202 206 212 216 221 175 160 200 202 168 167 167 163 156 156 160 163 157 157 151 139 161 178 173
100 107 100 97 79 72 58 25 40 36 350 319 310 290 289 297 309 314 324 323 321 321 323 323 326 325 319 315 308 303 306 305 297 283 281 277 267 266 264 266 274 273 270 271 267 263 237 224 201 207 215 218 216 213 211 183 192 184 187 183 150 154 170 168 157 152 147 150 142 120 74 58 76 85
99 95 100 93 108 122 146 176 204 234 240 237 246 267 307 321 321 319 321 325 327 326 323 321 320 323 325 324 322 317 310 298 295 290 288 280 268 261 262 263 263 267 269 273 283 269 239 231 213 211 212 219 231 253 77 95 55 69 131 173 175 164 159 163 157 145 148 143 130 139 153 141 134 35
101 95 109 132 131 133 133 158 191 208 245 297 341 337 323 298 308 318 323 323 325 325 325 324 325 328 326 326 325 321 318 313 306 304 304 298 289 283 274 274 275 273 277 277 277 272 256 245 236 292 44 51 84 103 102 111 136 142 138 131 135 121 142 154 149 145 137 139 142 149 159 156 138 129
124 117 115 117 116 117 116 94 23 47 1 1 357 342 326 323 317 324 323 324 326 325 325 325 325 324 322 323 325 324 322 318 317 316 316 313 308 299 283 277 273 276 282 300 338 16 36 62 77 83 88 75 58 87 107 123 113 96 77 60 65 87 87 98 124 134 141 141 142 143 115 62 74 125
94 106 95 81 83 84 68 93 50 27 339 344 353 331 319 326 334 339 334 330 329 330 327 321 320 321 318 319 320 320 320 324 324 324 324 323 322 321 330 343 346 10 53 66 54 52 58 76 90 90 86 85 79 86 86 87 90 100 101 99 91 72 59 57 63 80 123 147 151 155 153 146 139 171
121 98 90 72 65 52 48 41 8 344 348 338 321 295 294 313 327 319 312 312 321 318 316 316 317 321 318 318 319 321 327 331 333 335 339 339 338 339 342 9 34 39 44 66 60 49 56 67 76 88 89 90 97 97 101 100 96 86 86 89 96 100 98 86 64 70 84 69 45 92 141 145 159 170
129 114 133 183 150 51 44 10 13 345 351 315 294 298 304 315 301 310 304 307 306 315 318 316 317 315 320 323 331 336 334 332 338 345 349 354 354 357 6 20 32 39 34 42 79 66 58 65 63 74 81 78 85 95 93 96 103 111 112 114 102 88 92 97 108 115 115 110 61 78 121 87 89 108